timestamp,wind_dir_avg,wind_spd_avg,wind_spd_max_dir,wind_spd_gust,battery_voltage,lat,long
2023-01-29 00:04:00+00:00,149.0,4.89,148.0,5.9,12.33,47.59359,-54.27349
2023-01-29 00:14:01+00:00,157.0,4.46,154.0,5.03,12.33,47.59359,-54.27349
2023-01-29 00:24:01+00:00,156.0,4.72,167.0,5.58,12.33,47.59359,-54.27349
2023-01-29 00:34:01+00:00,157.0,5.83,154.0,6.7,12.33,47.59359,-54.27349
2023-01-29 00:44:01+00:00,166.0,6.24,166.0,6.88,12.33,47.59359,-54.27349
2023-01-29 00:54:01+00:00,158.0,6.39,160.0,7.27,12.33,47.59359,-54.27349
2023-01-29 01:04:01+00:00,146.0,5.13,145.0,5.64,12.33,47.59359,-54.27349
2023-01-29 01:14:00+00:00,159.0,5.54,155.0,6.19,12.33,47.59359,-54.27349
2023-01-29 01:24:00+00:00,157.0,5.75,152.0,6.78,12.33,47.59359,-54.27349
2023-01-29 01:34:00+00:00,159.0,5.74,157.0,6.7,12.33,47.59359,-54.27349
2023-01-29 01:44:00+00:00,145.0,4.7,147.0,5.18,12.33,47.59359,-54.27349
2023-01-29 01:54:00+00:00,149.0,4.64,148.0,5.22,12.33,47.59359,-54.27349
2023-01-29 02:04:00+00:00,147.0,3.97,146.0,4.54,12.33,47.59359,-54.27349
2023-01-29 02:14:01+00:00,163.0,4.85,166.0,5.48,12.25,47.59359,-54.27349
2023-01-29 02:24:01+00:00,224.0,6.13,234.0,7.91,12.25,47.59359,-54.27349
2023-01-29 02:34:01+00:00,225.0,5.8,229.0,6.81,12.25,47.59359,-54.27349
2023-01-29 02:44:01+00:00,214.0,6.21,212.0,7.26,12.25,47.59359,-54.27349
2023-01-29 02:54:01+00:00,212.0,6.7,202.0,8.06,12.25,47.59359,-54.27349
2023-01-29 03:04:01+00:00,213.0,7.01,214.0,7.83,12.25,47.59359,-54.27349
2023-01-29 03:14:01+00:00,226.0,5.3,235.0,6.91,12.25,47.59359,-54.27349
2023-01-29 03:24:01+00:00,221.0,6.04,226.0,7.7,12.25,47.59359,-54.27349
2023-01-29 03:34:01+00:00,198.0,5.38,201.0,6.84,12.25,47.59359,-54.27349
2023-01-29 03:44:01+00:00,224.0,4.74,216.0,5.72,12.25,47.59359,-54.27349
2023-01-29 03:54:01+00:00,227.0,5.22,242.0,7.47,12.25,47.59359,-54.27349
2023-01-29 04:04:01+00:00,209.0,3.24,210.0,3.68,12.25,47.59359,-54.27349
2023-01-29 04:14:00+00:00,247.0,4.66,243.0,5.79,12.25,47.59359,-54.27349
2023-01-29 04:24:00+00:00,218.0,6.37,222.0,7.06,12.25,47.59359,-54.27349
2023-01-29 04:34:00+00:00,244.0,5.8,242.0,7.31,12.25,47.59359,-54.27349
2023-01-29 04:44:00+00:00,266.0,5.75,263.0,8.35,12.25,47.59359,-54.27349
2023-01-29 04:54:00+00:00,277.0,5.96,282.0,6.84,12.25,47.59359,-54.27349
2023-01-29 05:04:00+00:00,274.0,5.52,269.0,6.37,12.25,47.59359,-54.27349
2023-01-29 05:14:00+00:00,256.0,5.13,257.0,6.84,12.25,47.59359,-54.27349
2023-01-29 05:24:00+00:00,264.0,5.65,269.0,6.58,12.25,47.59359,-54.27349
2023-01-29 05:34:00+00:00,242.0,4.07,236.0,4.84,12.25,47.59359,-54.27349
2023-01-29 05:44:00+00:00,245.0,4.0,235.0,4.58,12.25,47.59359,-54.27349
2023-01-29 05:54:00+00:00,240.0,3.48,224.0,4.36,12.25,47.59359,-54.27349
2023-01-29 06:04:00+00:00,227.0,3.64,225.0,4.1,12.25,47.59359,-54.27349
2023-01-29 06:14:00+00:00,236.0,3.5,249.0,4.16,12.17,47.59359,-54.27349
2023-01-29 06:24:00+00:00,234.0,4.16,231.0,4.77,12.17,47.59359,-54.27349
2023-01-29 06:34:00+00:00,229.0,3.65,224.0,4.07,12.17,47.59359,-54.27349
2023-01-29 06:44:00+00:00,233.0,4.19,229.0,5.3,12.17,47.59359,-54.27349
2023-01-29 06:54:00+00:00,234.0,5.57,245.0,7.97,12.17,47.59359,-54.27349
2023-01-29 07:04:00+00:00,229.0,6.05,239.0,8.71,12.17,47.59359,-54.27349
2023-01-29 07:14:00+00:00,223.0,4.76,211.0,5.88,12.25,47.59359,-54.27349
2023-01-29 07:24:00+00:00,247.0,9.73,253.0,10.75,12.25,47.59359,-54.27349
2023-01-29 07:34:00+00:00,255.0,9.13,253.0,10.49,12.25,47.59359,-54.27349
2023-01-29 07:44:00+00:00,253.0,8.5,247.0,10.44,12.25,47.59359,-54.27349
2023-01-29 07:54:00+00:00,256.0,9.15,256.0,10.25,12.25,47.59359,-54.27349
2023-01-29 08:04:00+00:00,259.0,7.69,257.0,9.59,12.25,47.59359,-54.27349
2023-01-29 08:14:00+00:00,256.0,7.71,259.0,9.51,12.25,47.59359,-54.27349
2023-01-29 08:24:00+00:00,232.0,5.01,251.0,7.28,12.25,47.59359,-54.27349
2023-01-29 08:34:00+00:00,256.0,8.01,252.0,10.12,12.25,47.59359,-54.27349
2023-01-29 08:44:00+00:00,234.0,8.13,240.0,10.68,12.25,47.59359,-54.27349
2023-01-29 08:54:00+00:00,239.0,10.89,238.0,11.65,12.25,47.59359,-54.27349
2023-01-29 09:04:00+00:00,233.0,7.24,240.0,10.61,12.25,47.59359,-54.27349
2023-01-29 09:14:01+00:00,232.0,10.2,236.0,12.11,12.17,47.59359,-54.27349
2023-01-29 09:24:01+00:00,231.0,11.31,231.0,12.46,12.17,47.59359,-54.27349
2023-01-29 09:34:01+00:00,232.0,11.65,230.0,12.77,12.17,47.59359,-54.27349
2023-01-29 09:44:01+00:00,236.0,10.89,235.0,12.21,12.17,47.59359,-54.27349
2023-01-29 09:54:01+00:00,229.0,9.62,239.0,11.94,12.17,47.59359,-54.27349
2023-01-29 10:04:01+00:00,234.0,11.26,234.0,12.27,12.17,47.59359,-54.27349
2023-01-29 10:14:01+00:00,225.0,12.01,216.0,13.41,12.17,47.59359,-54.27349
2023-01-29 10:24:01+00:00,227.0,12.16,226.0,13.42,12.17,47.59359,-54.27349
2023-01-29 10:34:01+00:00,222.0,12.52,223.0,13.95,12.17,47.59359,-54.27349
2023-01-29 10:44:01+00:00,219.0,14.22,220.0,15.35,12.17,47.59359,-54.27349
2023-01-29 10:54:01+00:00,216.0,12.16,219.0,14.16,12.17,47.59359,-54.27349
2023-01-29 11:04:01+00:00,218.0,14.34,217.0,15.89,12.17,47.59359,-54.27349
2023-01-29 11:14:00+00:00,218.0,13.38,218.0,15.08,12.17,47.59359,-54.27349
2023-01-29 11:24:00+00:00,220.0,13.7,215.0,15.58,12.17,47.59359,-54.27349
2023-01-29 11:34:00+00:00,216.0,14.8,212.0,15.92,12.17,47.59359,-54.27349
2023-01-29 11:44:00+00:00,217.0,14.79,215.0,16.28,12.17,47.59359,-54.27349
2023-01-29 11:54:00+00:00,219.0,14.22,213.0,16.67,12.17,47.59359,-54.27349
2023-01-29 12:04:00+00:00,218.0,13.77,216.0,16.05,12.17,47.59359,-54.27349
2023-01-29 12:14:01+00:00,220.0,12.55,224.0,14.12,12.33,47.59359,-54.27349
2023-01-29 12:24:01+00:00,220.0,12.32,225.0,13.63,12.33,47.59359,-54.27349
2023-01-29 12:34:01+00:00,225.0,11.96,225.0,13.72,12.33,47.59359,-54.27349
2023-01-29 12:44:01+00:00,226.0,11.47,226.0,13.13,12.33,47.59359,-54.27349
2023-01-29 12:54:01+00:00,226.0,12.62,226.0,13.92,12.33,47.59359,-54.27349
2023-01-29 13:04:01+00:00,228.0,11.31,229.0,13.47,12.33,47.59359,-54.27349
2023-01-29 13:14:01+00:00,229.0,11.23,220.0,12.65,14.32,47.59359,-54.27349
2023-01-29 13:24:01+00:00,229.0,11.12,231.0,12.71,14.32,47.59359,-54.27349
2023-01-29 13:34:01+00:00,233.0,10.32,233.0,12.3,14.32,47.59359,-54.27349
2023-01-29 13:44:01+00:00,248.0,14.34,248.0,18.2,14.32,47.59359,-54.27349
2023-01-29 13:54:01+00:00,254.0,11.36,250.0,13.97,14.32,47.59359,-54.27349
2023-01-29 14:04:01+00:00,258.0,13.22,257.0,17.98,14.32,47.59359,-54.27349
2023-01-29 14:14:01+00:00,264.0,13.48,264.0,17.44,14.24,47.59359,-54.27349
2023-01-29 14:24:01+00:00,262.0,13.41,267.0,17.75,14.24,47.59359,-54.27349
2023-01-29 14:34:01+00:00,260.0,14.4,257.0,18.84,14.24,47.59359,-54.27349
2023-01-29 14:44:01+00:00,269.0,15.32,268.0,18.31,14.24,47.59359,-54.27349
2023-01-29 14:54:01+00:00,264.0,16.99,256.0,18.68,14.24,47.59359,-54.27349
2023-01-29 15:04:01+00:00,257.0,17.51,254.0,19.15,14.24,47.59359,-54.27349
2023-01-29 15:14:01+00:00,259.0,14.4,259.0,18.79,13.6,47.59359,-54.27349
2023-01-29 15:24:01+00:00,263.0,13.55,259.0,17.36,13.6,47.59359,-54.27349
2023-01-29 15:34:01+00:00,266.0,16.12,266.0,18.29,13.6,47.59359,-54.27349
2023-01-29 15:44:01+00:00,257.0,16.77,252.0,19.44,13.6,47.59359,-54.27349
2023-01-29 15:54:01+00:00,254.0,14.68,252.0,18.74,13.6,47.59359,-54.27349
2023-01-29 16:04:01+00:00,260.0,16.32,251.0,19.09,13.6,47.59359,-54.27349
2023-01-29 16:14:00+00:00,272.0,15.69,275.0,18.06,13.68,47.59359,-54.27349
2023-01-29 16:24:00+00:00,271.0,15.32,277.0,18.05,13.68,47.59359,-54.27349
2023-01-29 16:34:00+00:00,271.0,12.54,267.0,17.04,13.68,47.59359,-54.27349
2023-01-29 16:44:00+00:00,263.0,15.66,257.0,18.29,13.68,47.59359,-54.27349
2023-01-29 16:54:00+00:00,255.0,12.91,257.0,17.59,13.68,47.59359,-54.27349
2023-01-29 17:04:00+00:00,262.0,12.15,259.0,17.46,13.68,47.59359,-54.27349
2023-01-29 17:14:00+00:00,259.0,14.97,261.0,17.7,13.68,47.59359,-54.27349
2023-01-29 17:24:00+00:00,268.0,11.01,272.0,12.53,13.68,47.59359,-54.27349
2023-01-29 17:34:00+00:00,271.0,11.24,273.0,15.27,13.68,47.59359,-54.27349
2023-01-29 17:44:00+00:00,269.0,10.67,267.0,11.82,13.68,47.59359,-54.27349
2023-01-29 17:54:00+00:00,265.0,12.47,261.0,14.73,13.68,47.59359,-54.27349
2023-01-29 18:04:00+00:00,258.0,10.91,253.0,12.22,13.68,47.59359,-54.27349
2023-01-29 18:14:00+00:00,255.0,10.58,252.0,11.95,14.4,47.59359,-54.27349
2023-01-29 18:24:00+00:00,258.0,10.79,252.0,11.89,14.4,47.59359,-54.27349
2023-01-29 18:34:00+00:00,259.0,12.14,264.0,14.91,14.4,47.59359,-54.27349
2023-01-29 18:44:00+00:00,273.0,10.81,275.0,12.13,14.4,47.59359,-54.27349
2023-01-29 18:54:00+00:00,262.0,12.57,267.0,15.51,14.4,47.59359,-54.27349
2023-01-29 19:04:00+00:00,266.0,11.31,262.0,13.65,14.4,47.59359,-54.27349
2023-01-29 19:14:00+00:00,276.0,11.08,278.0,12.11,14.08,47.59359,-54.27349
2023-01-29 19:24:00+00:00,271.0,10.11,271.0,11.71,14.08,47.59359,-54.27349
2023-01-29 19:34:00+00:00,265.0,10.72,278.0,11.59,14.08,47.59359,-54.27349
2023-01-29 19:44:00+00:00,262.0,11.5,261.0,13.03,14.08,47.59359,-54.27349
2023-01-29 19:54:00+00:00,266.0,11.12,265.0,11.72,14.08,47.59359,-54.27349
2023-01-29 20:04:00+00:00,265.0,9.84,275.0,11.21,14.08,47.59359,-54.27349
2023-01-29 20:14:00+00:00,270.0,10.62,269.0,11.96,13.13,47.59359,-54.27349
2023-01-29 20:24:00+00:00,279.0,8.76,269.0,10.24,13.13,47.59359,-54.27349
2023-01-29 20:34:00+00:00,270.0,8.48,270.0,9.44,13.13,47.59359,-54.27349
2023-01-29 20:44:00+00:00,273.0,7.78,272.0,9.77,13.13,47.59359,-54.27349
2023-01-29 20:54:00+00:00,275.0,6.92,280.0,7.66,13.13,47.59359,-54.27349
2023-01-29 21:04:00+00:00,274.0,7.42,273.0,9.72,13.13,47.59359,-54.27349
2023-01-29 21:14:00+00:00,271.0,8.21,272.0,12.2,12.49,47.59359,-54.27349
2023-01-29 21:24:00+00:00,278.0,9.38,277.0,11.01,12.49,47.59359,-54.27349
2023-01-29 21:34:00+00:00,280.0,7.93,269.0,10.19,12.49,47.59359,-54.27349
2023-01-29 21:44:00+00:00,280.0,6.55,280.0,7.76,12.49,47.59359,-54.27349
2023-01-29 21:54:00+00:00,282.0,7.18,281.0,9.8,12.49,47.59359,-54.27349
2023-01-29 22:04:00+00:00,278.0,6.71,271.0,8.25,12.49,47.59359,-54.27349
2023-01-29 22:14:01+00:00,298.0,5.18,308.0,6.12,12.41,47.59359,-54.27349
2023-01-29 22:24:01+00:00,308.0,4.32,309.0,5.26,12.41,47.59359,-54.27349
2023-01-29 22:34:01+00:00,300.0,5.78,293.0,7.9,12.41,47.59359,-54.27349
2023-01-29 22:44:01+00:00,302.0,6.66,300.0,7.89,12.41,47.59359,-54.27349
2023-01-29 22:54:01+00:00,269.0,5.24,272.0,6.09,12.41,47.59359,-54.27349
2023-01-29 23:04:01+00:00,327.0,4.81,331.0,5.74,12.41,47.59359,-54.27349
2023-01-29 23:14:00+00:00,317.0,5.67,314.0,6.1,12.41,47.59359,-54.27349
2023-01-29 23:24:00+00:00,316.0,4.52,318.0,5.36,12.41,47.59359,-54.27349
2023-01-29 23:34:00+00:00,313.0,5.21,317.0,6.18,12.41,47.59359,-54.27349
2023-01-29 23:44:00+00:00,305.0,3.4,311.0,4.29,12.41,47.59359,-54.27349
2023-01-29 23:54:00+00:00,297.0,4.24,294.0,4.82,12.41,47.59359,-54.27349
